Current weather by "City, St" or "zip code"  
 
Advertise Here

Current Conditions: INDIANAPOLIS, IN

Fog/Mist


34.0 F

Last Updated on Jan 26 2021, 9:55 am EST
Humidity: 97%
Wind Speed: W 10.4 mph
Barometer 29.71 in
Dewpoint: 33.1 F
Visibility: 5.00 mi
Precip: --
Heat Index: NA
Wind Chill: 26 F
Current conditions at:

INDIANAPOLIS, IN (KTYQ)

Lat: 40.03066 Lon: 86.2515

Local Radar Image active severe weather and emergency alerts image image weather storm and storm spotter reports image weather observation monitoring service image
Local
Radar
Active
Alerts
Storm Reports Obs
Monitoring

Sign-up For Email & Text Message Weather Alert Notification Services


Advertise Here

Observation History for INDIANAPOLIS, IN


Time Wind
(mph)
Vis
(mi)
Weather Precip (in) Temperature (F) Relative
Humidity
Wind
Chill
(F)
Heat
Index
(F)
Pressure
Air Dwpt altimeter
(in)
sea level
(mb)
Rmks
9:55 am EST W 10.4 5.00 Fog/Mist -- 34.0 33.1 97% 26 NA 29.71 M
8:55 am EST W 12.7 G 16.1 2.50 Fog/Mist -- 33.0 33.3 99% 24 NA 29.68 M
7:55 am EST SW 8.1 2.50 Fog/Mist -- 33.0 32.9 100% 26 NA 29.66 M
6:55 am EST SW 4.6 0.75 Fog/Mist -- 32.0 32.2 100% 27 NA 29.65 M
5:55 am EST S 4.6 1.25 Fog/Mist -- 32.0 32.0 100% 27 NA 29.63 M
4:55 am EST SE 4.6 1.75 Fog/Mist -- 32.0 32.0 100% 27 NA 29.62 M
3:55 am EST E 3.5 1.50 Light Snow -- 32.0 32.0 100% NA NA 29.62 M
2:55 am EST E 4.6 1.50 Fog/Mist -- 32.0 32.0 100% 27 NA 29.62 M
1:55 am EST E 6.9 1.75 Fog/Mist -- 32.0 31.6 99% 26 NA 29.62 M
12:55 am EST E 9.2 1.75 Light Rain -- 32.0 31.5 98% 24 NA 29.65 M
9:55 pm EST E 13.8 G 20.7 2.00 Light Snow -- 31.0 29.8 96% 21 NA 29.72 M
8:55 pm EST E 12.7 G 21.9 3.00 Fog/Mist -- 31.0 29.7 95% 21 NA 29.74 M
7:55 pm EST E 15.0 G 23.0 3.00 Fog/Mist -- 31.0 29.3 95% 20 NA 29.76 M
6:55 pm EST NE 12.7 G 20.7 2.50 Light Drizzle -- 31.0 29.7 95% 21 NA 29.79 M
5:55 pm EST NE 11.5 G 19.6 2.00 Fog/Mist -- 31.0 29.3 94% 22 NA 29.79 M
4:55 pm EST NE 11.5 G 17.3 3.00 Fog/Mist -- 31.0 29.3 92% 22 NA 29.79 M
3:55 pm EST E 11.5 10.00 Overcast -- 31.0 29.3 92% 22 NA 29.79 M
2:55 pm EST NE 13.8 G 18.4 7.00 Overcast -- 31.0 29.1 92% 21 NA 29.80 M
1:55 pm EST E 8.1 7.00 Light Drizzle -- 31.0 28.8 92% 24 NA 29.86 M
12:55 pm EST E 9.2 4.00 Light Rain -- 30.0 28.2 93% 22 NA 29.93 M
11:55 am EST E 8.1 1.50 Light Snow -- 29.0 27.3 93% 21 NA 30.00 M
10:55 am EST E 12.7 7.00 Overcast -- 29.0 26.2 90% 19 NA 29.98 M

Regional Weather Observation


Frankfort Municipal Airport, IN (KFKR)

Unknown Precip Fog/Mist
32.0 F

Lafayette, Purdue University Airport, IN (KLAF)

Fog
34.0 F

Kokomo, Kokomo Municipal Airport, IN (KOKK)

Unknown Precip
NULL F

Grissom Air Force Base / Peru, IN (KGUS)

Light Drizzle
NULL F

Logansport/Cass County Airport, IN (KGGP)

Light Rain
NULL F

Monticello White County Airport, IN (KMCX)

Light Snow
32.0 F